TimeEST,TemperatureF,Dew PointF,Humidity,Sea Level PressureIn,VisibilityMPH,Wind Direction,Wind SpeedMPH,Gust SpeedMPH,PrecipitationIn,Events,Conditions,WindDirDegrees,DateUTC
12:52 AM,33.1,28.9,85,30.39,10.0,Calm,Calm,-,N/A,,Clear,0,2013-01-09 05:52:00
1:52 AM,28.4,26.6,93,30.36,9.0,Calm,Calm,-,N/A,,Clear,0,2013-01-09 06:52:00
2:52 AM,28.0,25.0,88,30.37,10.0,Calm,Calm,-,N/A,,Clear,0,2013-01-09 07:52:00
3:52 AM,28.0,27.0,96,30.37,7.0,Calm,Calm,-,N/A,,Partly Cloudy,0,2013-01-09 08:52:00
4:52 AM,28.0,26.1,92,30.36,8.0,NW,3.5,-,N/A,,Partly Cloudy,320,2013-01-09 09:52:00
5:52 AM,26.1,24.1,92,30.36,9.0,Calm,Calm,-,N/A,,Scattered Clouds,0,2013-01-09 10:52:00
6:52 AM,27.0,25.0,92,30.35,9.0,Calm,Calm,-,N/A,,Scattered Clouds,0,2013-01-09 11:52:00
7:52 AM,28.4,26.6,93,30.37,8.0,NW,3.5,-,N/A,,Mostly Cloudy,310,2013-01-09 12:52:00
8:52 AM,33.1,30.0,89,30.36,7.0,SE,3.5,-,N/A,,Mostly Cloudy,140,2013-01-09 13:52:00
9:52 AM,37.0,33.1,86,30.37,7.0,South,3.5,-,N/A,,Mostly Cloudy,180,2013-01-09 14:52:00
10:52 AM,39.0,34.0,82,30.36,9.0,SSW,4.6,-,N/A,,Mostly Cloudy,200,2013-01-09 15:52:00
11:52 AM,42.8,33.8,70,30.32,9.0,SSW,4.6,-,N/A,,Mostly Cloudy,200,2013-01-09 16:52:00
12:52 PM,42.1,34.0,73,30.32,9.0,Calm,Calm,-,0.00,Rain,Light Rain,0,2013-01-09 17:52:00
1:52 PM,43.0,35.1,74,30.31,9.0,Calm,Calm,-,0.00,Rain,Light Rain,0,2013-01-09 18:52:00
2:11 PM,42.8,35.6,76,30.30,6.0,Calm,Calm,-,0.01,Rain,Light Rain,0,2013-01-09 19:11:00
2:52 PM,42.1,39.0,89,30.27,6.0,SSE,3.5,-,0.02,,Overcast,150,2013-01-09 19:52:00
3:52 PM,44.1,39.0,82,30.27,8.0,SSW,3.5,-,N/A,,Overcast,210,2013-01-09 20:52:00
4:52 PM,43.0,39.0,86,30.25,8.0,South,3.5,-,N/A,,Mostly Cloudy,180,2013-01-09 21:52:00
5:52 PM,37.9,36.0,93,30.26,8.0,Calm,Calm,-,N/A,,Mostly Cloudy,0,2013-01-09 22:52:00
6:52 PM,39.9,37.0,89,30.30,8.0,Calm,Calm,-,N/A,,Mostly Cloudy,0,2013-01-09 23:52:00
7:52 PM,41.0,37.0,86,30.33,9.0,Calm,Calm,-,N/A,,Partly Cloudy,0,2013-01-10 00:52:00
8:52 PM,45.0,39.0,80,30.34,10.0,NW,9.2,-,N/A,,Partly Cloudy,320,2013-01-10 01:52:00
9:52 PM,39.9,36.0,86,30.36,10.0,Calm,Calm,-,N/A,,Partly Cloudy,0,2013-01-10 02:52:00
10:52 PM,48.9,32.0,52,30.39,10.0,West,5.8,-,N/A,,Mostly Cloudy,270,2013-01-10 03:52:00
11:52 PM,48.9,27.0,43,30.39,10.0,NW,13.8,27.6,N/A,,Scattered Clouds,310,2013-01-10 04:52:00